Location: Unspecified
(0.0000°N, 0.0000°E)
Time: 23:53:28
(UTC+01:00)

Cosmos 773 Rocket - Visible Passes

Search period start: 23 January 2017 00:00
Search period end: 02 February 2017 00:00
Orbit: 745 x 778 km, 74.1° (Epoch: 23 January)

Date Brightness Start Highest point End Pass type
(mag) Time Alt. Az. Time Alt. Az. Time Alt. Az.
23 Jan 6.1 06:12:27 10° NNE 06:16:52 27° ENE 06:21:17 10° SE visible
24 Jan 6.9 05:35:47 10° NE 05:37:54 12° ENE 05:40:01 10° ESE visible
24 Jan 6.9 19:48:38 10° WSW 19:50:52 13° WNW 19:53:06 10° NW visible
25 Jan 4.0 06:35:19 10° NNW 06:40:35 83° WSW 06:45:52 10° S visible
26 Jan 5.1 05:56:37 10° N 06:01:39 45° ENE 06:06:39 10° SSE visible
27 Jan 6.3 05:18:46 10° NNE 05:22:41 21° ENE 05:26:35 10° SE visible
28 Jan 4.2 06:20:17 10° NNW 06:25:21 49° WSW 06:30:25 10° S visible
29 Jan 4.1 05:42:27 18° N 05:46:24 77° ENE 05:51:39 10° SSE visible
30 Jan 5.4 05:05:22 25° NE 05:07:27 35° ENE 05:12:12 10° SE visible
30 Jan 5.7 06:46:36 10° WNW 06:49:04 13° WSW 06:51:33 10° SW visible
31 Jan 6.5 04:28:13 16° ENE 04:28:29 16° ENE 04:31:40 10° ESE visible
31 Jan 4.9 06:08:25 24° WNW 06:10:07 29° WSW 06:14:37 10° SSW visible
01 Feb 3.9 05:31:12 64° WSW 05:31:12 64° WSW 05:36:21 10° S visible
